Tracking 28790 objects as of 19-Apr-2024
HD Live streaming from Space Station
objects crossing your sky now

FLOCK 1C 10

Track FLOCK 1C 10 now!
10-day predictions
FLOCK 1C 10 is classified as:


NORAD ID: 40023
Int'l Code: 2014-033P
Perigee: 548.3 km
Apogee: 561.2 km
Inclination: 98.1 °
Period: 95.6 minutes
Semi major axis: 6925 km
RCS: Unknown
Launch date: June 19, 2014
Source: United States (US)
Launch site: Orenburg, Russia (OREN)
Your satellite tracking list
Your tracking list is empty




NASA's NSSDC Master Catalog

Two Line Element Set (TLE):
1 40023U 14033P   24109.92812252  .00035612  00000-0  24180-2 0  9991
2 40023  98.0710  85.0079 0009303 341.6674  18.4215 15.06261062534935
Source of the keplerian elements: Caltech